Participated 1 time
in 1951
Roger Piel, France
Tour de France 2026 starts from Barcelona, Spain in

Stats and Facts from
Tour de France.

2026   2025   2024   2023  2022  2021  2020  2019   2018  2017   2016   2015  2014  2013   2012   2011  2010   2009   2008   2007   2006   2005   2004   2003   2002   2001   2000   1999   1998   1997  1996   1995   1994   1993   1992  1991   1990   1989   1988   1987   1986   1985   1984   1983  1982  1981   1980   1979  1978  1977   1976  1975  1974  1973   1972   1971   1970  1969   1968   1967   1966   1965  1964  1963   1962   1961   1960   1959   1958   1957  1956   1955   1954   1953   1952  1951  1950  1949   1948  1947  1939   1938   1937   1936   1935   1934   1933  1932   1931   1930  1929   1928   1927   1926  1925  1924  1923   1922   1921   1920   1919  1914   1913   1912   1911   1910  1909   1908   1907   1906  1905  1904   1903 

Tourstats
Sitemap

After stage 21 - 2025:
 16451 starters.
  5463 different riders.
  689 teams.
  2398 stages.
  470 restdays.
  466506.50 km.
  5925 abandoned riders.

Click map for 1951 route.
Facts from Tour de France 1951 Additional info and images from 1951.
  |   Stages.  |   Stage winners.  |   Days in jerseys.  |   Teams.  |   All riders.  |   All riders by age.  |   All riders from.  |  

  |   Rookies.  |   Withdrawls.  |   Average speed.  |   GC.  |   Polka  |   Green  |   White  |   Summits. (In tour)  |   Miscellaneous.  |  

Stage 10 on July 14th. 1951
Pick a stage:  1  2  3  4  5  6  7  8  9  10  11  12  13  14  15  16  17  18  19  20  21  22  23  24  

After stage 10:    Roger Leveque  
  Clermont-FerrandBrive-la-Gaillarde | Dist: 216.00km. | Winner: Bernardo Ruíz

Podium
2  La Croix Morand Bernardo Ruízafter46.00 km.

2  Roche Vendeix Bernardo Ruízafter66.00 km.

3  Puy de Bort Bernardo Ruízafter108.00 km.


Average speed for all riders in stage:  31,887 km./hr.

1
 Bernardo Ruíz  Spain06h 35' 15"=32,789  km/h

2
 Marcel Verschueren  Belgium06h 36' 53"+  00:01:38 =32,654  km/h

3
 Bernard Gauthier  France06h 37' 40"+  00:02:25 =32,590  km/h

4  Armand Baeyens  Belgium06h 37' 40"+  00:02:25 =32,590  km/h

5  Serifano Biagioni  Italy06h 41' 59"+  00:06:44 =32,240  km/h

6  Gilbert Bauvin  Est-Sud Est06h 41' 59"+  00:06:44 =32,240  km/h

7  Gerrit Peters  Holland06h 42' 42"+  00:07:27 =32,183  km/h

8  Stan Ockers  Belgium06h 42' 42"+  00:07:27 =32,183  km/h

9  Roger Decock  Belgium06h 42' 42"+  00:07:27 =32,183  km/h

10  Wim van Est  Holland06h 42' 42"+  00:07:27 =32,183  km/h

11  Joseph Morvan  Ouest-Sud Ouest06h 42' 42"+  00:07:27 =32,183  km/h

12  Marcel Michel  Paris06h 42' 42"+  00:07:27 =32,183  km/h

13  Hugo Koblet  Switzerland06h 42' 42"+  00:07:27 =32,183  km/h

14  Lucien Lazarides  France06h 42' 42"+  00:07:27 =32,183  km/h

15  André Rosseel  Belgium06h 42' 42"+  00:07:27 =32,183  km/h

16  Jean-Baptiste Dotto  Est-Sud Est06h 42' 42"+  00:07:27 =32,183  km/h

16  Wout Wagtmans  Holland06h 42' 42"+  00:07:27 =32,183  km/h

16  Jean Robic  Paris06h 42' 42"+  00:07:27 =32,183  km/h

16  Louison Bobet  France06h 42' 42"+  00:07:27 =32,183  km/h

16  Raphaël Geminiani  France06h 42' 42"+  00:07:27 =32,183  km/h

16  Pierre Barbotin  France06h 42' 42"+  00:07:27 =32,183  km/h

16  Nello Lauredi  France06h 42' 42"+  00:07:27 =32,183  km/h

16  José Serra Gil  Spain06h 42' 42"+  00:07:27 =32,183  km/h

16  Vincent Vitetta  Est-Sud Est06h 42' 42"+  00:07:27 =32,183  km/h

16  Marcel De Mulder  Belgium06h 42' 42"+  00:07:27 =32,183  km/h

16  Francisco Masip  Spain06h 42' 42"+  00:07:27 =32,183  km/h

16  Jacques Marinelli  Île-de-France06h 42' 42"+  00:07:27 =32,183  km/h

16  Gino Bartali  Italy06h 42' 42"+  00:07:27 =32,183  km/h

16  Jean Diederich  Luxembourg06h 42' 42"+  00:07:27 =32,183  km/h

16  Jean Goldschmit  Luxembourg06h 42' 42"+  00:07:27 =32,183  km/h

16  Fausto Coppi  Italy06h 42' 42"+  00:07:27 =32,183  km/h

16  Robert Bonnaventure  Paris06h 42' 42"+  00:07:27 =32,183  km/h

16  Virgilio Salimbeni  Italy06h 42' 42"+  00:07:27 =32,183  km/h

16  Henri Kass  Luxembourg06h 42' 42"+  00:07:27 =32,183  km/h

16  Pierre Cogan  Ouest-Sud Ouest06h 42' 42"+  00:07:27 =32,183  km/h

16  Jean-Marie Goasmat  Ouest-Sud Ouest06h 42' 42"+  00:07:27 =32,183  km/h

16  Roger Leveque  Ouest-Sud Ouest06h 42' 42"+  00:07:27 =32,183  km/h

16  Fiorenzo Magni  Italy06h 42' 42"+  00:07:27 =32,183  km/h

39  Angelo Colinelli  Est-Sud Est06h 45' 56"+  00:10:41 =31,926  km/h

40  Louis Deprez  Île-de-France06h 45' 56"+  00:10:41 =31,926  km/h

41  Gerrit Voorting  Holland06h 45' 56"+  00:10:41 =31,926  km/h

42  Willy Kemp  Luxembourg06h 45' 56"+  00:10:41 =31,926  km/h

43  Alois De Hertog  Belgium06h 45' 56"+  00:10:41 =31,926  km/h

44  Miguel Gual Bauza  Spain06h 45' 56"+  00:10:41 =31,926  km/h

45  Robert Castelin  Est-Sud Est06h 45' 56"+  00:10:41 =31,926  km/h

46  Manuel Rodriguez  Spain06h 45' 56"+  00:10:41 =31,926  km/h

47  Eduard Van Ende  Belgium06h 45' 56"+  00:10:41 =31,926  km/h

48  Lucien Teisseire  France06h 45' 56"+  00:10:41 =31,926  km/h

49  Andrea Carrea  Italy06h 45' 56"+  00:10:41 =31,926  km/h

50  Sylvio Pedroni  Italy06h 45' 56"+  00:10:41 =31,926  km/h

51  Jean-Marie Cieliczka  Ouest-Sud Ouest06h 45' 56"+  00:10:41 =31,926  km/h

52  Paul Giguet  Est-Sud Est06h 45' 56"+  00:10:41 =31,926  km/h

53  Alois Vansteenkiste  Belgium06h 45' 56"+  00:10:41 =31,926  km/h

53  Hilaire Couvreur  Belgium06h 45' 56"+  00:10:41 =31,926  km/h

53  Adolphe Deledda  Est-Sud Est06h 45' 56"+  00:10:41 =31,926  km/h

53  Giuseppe Mirando  Est-Sud Est06h 45' 56"+  00:10:41 =31,926  km/h

53  Luciano Pezzi  Italy06h 45' 56"+  00:10:41 =31,926  km/h

53  Roger Buchonnet  Est-Sud Est06h 45' 56"+  00:10:41 =31,926  km/h

53  Jean-Apotre Lazarides  France06h 45' 56"+  00:10:41 =31,926  km/h

53  Pierre Molineris  Est-Sud Est06h 45' 56"+  00:10:41 =31,926  km/h

53  Raoul Remy  France06h 45' 56"+  00:10:41 =31,926  km/h

53  Dalmácio Langarica  Spain06h 45' 56"+  00:10:41 =31,926  km/h

53  Georges Meunier  Ouest-Sud Ouest06h 45' 56"+  00:10:41 =31,926  km/h

53  Georges Aeschlimann  Switzerland06h 45' 56"+  00:10:41 =31,926  km/h

53  Franco Franchi  Italy06h 45' 56"+  00:10:41 =31,926  km/h

53  Ettore Milano  Italy06h 45' 56"+  00:10:41 =31,926  km/h

53  Hans Dekkers  Holland06h 45' 56"+  00:10:41 =31,926  km/h

53  Jean Delahaye  Île-de-France06h 45' 56"+  00:10:41 =31,926  km/h

53  Jean Baldassari  France06h 45' 56"+  00:10:41 =31,926  km/h

53  Raymond Guegan  Ouest-Sud Ouest06h 45' 56"+  00:10:41 =31,926  km/h

71  Hans Sommer  Switzerland06h 48' 42"+  00:13:27 =31,710  km/h

72  Jean Gueguen  France06h 48' 42"+  00:13:27 =31,710  km/h

73  Marcel Huber  Switzerland06h 48' 42"+  00:13:27 =31,710  km/h

74  Louis Caput  Paris06h 48' 42"+  00:13:27 =31,710  km/h

75  Pierre Brambilla  Est-Sud Est06h 48' 42"+  00:13:27 =31,710  km/h

76  Dominique Forlini  Paris06h 50' 44"+  00:15:29 =31,553  km/h

77  Robert Bintz  Luxembourg06h 50' 44"+  00:15:29 =31,553  km/h

78  Edouard Muller  France06h 52' 02"+  00:16:47 =31,454  km/h

79  Germain Derycke  Belgium06h 52' 02"+  00:16:47 =31,454  km/h

80  Roger Walkowiak  Ouest-Sud Ouest06h 52' 02"+  00:16:47 =31,454  km/h

81  Jean-Louis Carle  Paris06h 52' 02"+  00:16:47 =31,454  km/h

82  Robert Desbats  Ouest-Sud Ouest06h 52' 02"+  00:16:47 =31,454  km/h

83  André Labeylie  Île-de-France06h 52' 02"+  00:16:47 =31,454  km/h

84  André Ruffet  Ouest-Sud Ouest06h 52' 02"+  00:16:47 =31,454  km/h

85  Andre Mahé  Ouest-Sud Ouest06h 52' 02"+  00:16:47 =31,454  km/h

86  Gottfried Weilenmann  Switzerland06h 55' 43"+  00:20:28 =31,175  km/h

87  Leo Weilenmann  Switzerland06h 55' 43"+  00:20:28 =31,175  km/h

88  Emile Baffert  Est-Sud Est06h 55' 43"+  00:20:28 =31,175  km/h

89  Jean Mayen  North Africa06h 56' 57"+  00:21:42 =31,083  km/h

90  Victorio Ruiz Garcia  Spain06h 56' 57"+  00:21:42 =31,083  km/h

91  Gino Sciardis  Île-de-France07h 00' 47"+  00:25:32 =30,800  km/h

92  Maurice Diot  Paris07h 00' 47"+  00:25:32 =30,800  km/h

93  Abdel-Kader Zaaf  North Africa07h 07' 04"+  00:31:49 =30,347  km/h

94  Isidoor De Ryck  Belgium07h 07' 04"+  00:31:49 =30,347  km/h


Withdrawls: 3
 RiderTeamReason
59   Henk Faanhof HollandDid not finish
73   Serge Blusson ParisDid not finish
95   Attilio Redolfi Île-de-FranceDid not finish
Todays birthdays.

1869 • Adolphe Dorion
1884 • Achille Germain
1886 • Emile Eigeldinger
1896 • Andre Léger
1907 • Frans Dictus
1921 • Alberto Ghirardi
1934 • Joseph Planckaert
1945 • Leif Mortensen
1952 • Alex Van Linden
1960 • Roberto Bressan
1960 • Bernard Chesneau
1962 • Paul Watson
1963 • Juan Rozas
1965 • Jean-Pierre Heynderickx
1967 • José-Manuel Oliveira
1970 • Wilfried Nelissen
1980 • Nick Nuyens
1996 • Jai Hindley

 

Optimized for Chrome - Edge
and Opera browsers.